Location: Chenango Forks
(42.2242°N, 75.8278°W)
Time: 17:50:59
(UTC-04:00)

Daily predictions for brighter satellites

Satellite Brightness Start Highest point End
(mag) Time Altitude Azimuth Time Altitude Azimuth Time Altitude Azimuth
Cosmos 1726 Rocket 3.7 19:21:00 10° S 19:25:14 53° E 19:29:28 10° NNE
SPOT 3 Rocket 4.0 19:24:52 10° S 19:29:59 70° WSW 19:35:10 10° NNW
Cosmos 1709 Rocket 4.1 19:25:25 10° S 19:31:46 85° E 19:38:11 10° N
BREEZE-M DEB (TANK) 3.5 19:29:49 10° NW 19:31:57 17° N 19:33:29 10° NE
Cosmos 1378 3.2 19:32:53 10° N 19:36:37 55° E 19:40:19 10° SSE
Cosmos 1898 Rocket 3.9 19:32:21 10° NNW 19:37:31 70° WSW 19:42:38 10° S
Cosmos 1544 4.5 19:36:12 10° SE 19:38:41 18° E 19:41:11 10° NE
Cosmos 1271 Rocket 3.2 19:35:06 10° SSW 19:38:50 63° WNW 19:42:38 10° N
ATLAS CENTAUR R/B 3.9 19:21:57 10° NW 19:38:54 74° NE 19:44:17 10° ESE
Cosmos 2084 3.3 19:35:06 10° SSW 19:39:09 61° ESE 19:43:00 10° NE
Cosmos 1943 4.4 19:34:18 10° SW 19:39:44 46° WNW 19:45:14 10° NNE
Cosmos 1814 Rocket 3.9 19:35:05 10° SSW 19:40:14 79° ESE 19:45:24 10° NNE
Cosmos 990 Rocket 3.9 19:38:39 10° NNW 19:43:51 85° ENE 19:48:59 10° SSE
Cosmos 1340 Rocket 3.2 19:42:32 10° NNW 19:46:36 71° W 19:50:39 10° S
Cosmos 1125 Rocket 4.4 19:43:21 10° N 19:48:00 30° ENE 19:52:05 12° ESE
Milstar 3 Cent rocket 4.0 19:49:57 10° S 19:51:13 11° SSE 19:52:25 10° SSE
Resurs 01 Rocket 2.5 19:50:31 11° SE 19:54:08 29° ENE 19:57:56 10° N
Cosmos 2228 2.9 19:50:09 10° S 19:54:30 74° E 19:58:51 10° NNE
USA 81 4.0 19:52:28 10° N 19:57:47 87° E 20:03:04 10° S
GP-B 4.2 19:54:44 10° NNE 19:58:23 24° E 20:01:09 14° SE
Envisat 3.9 19:54:45 13° ESE 19:58:26 29° ENE 20:02:45 10° N
Geosat 4.3 19:53:58 10° SSE 19:58:58 70° WSW 20:04:01 10° NNW
Cosmos 2184 Rocket 4.1 19:54:13 10° S 20:00:21 59° E 20:06:36 10° NNE
CZ-2D R/B 3.8 19:57:37 12° SE 20:00:52 37° ENE 20:04:24 10° N
Cosmos 2150 Rocket 4.5 19:56:26 10° NNW 20:01:45 67° WSW 20:07:06 10° S
Cosmos 1812 Rocket 4.4 20:00:08 10° SSE 20:03:59 30° E 20:07:53 10° NNE
ISS -1.4 20:03:30 10° SSE 20:03:32 10° SSE 20:03:32 10° SSE
Cosmos 1953 Rocket 4.5 20:01:58 10° NNW 20:06:10 50° W 20:10:20 10° SSW
Cosmos 304 Rocket 3.7 20:02:10 10° SSW 20:06:57 81° ESE 20:11:46 10° NNE
Cosmos 2058 Rocket 3.3 20:03:51 10° SSW 20:08:11 72° W 20:12:34 10° N
USA 186 3.4 20:11:00 14° NNE 20:11:00 14° NNE 20:11:33 10° NNE
Meteor 1-24 Rocket 3.8 20:03:57 10° N 20:09:56 70° ENE 20:15:43 10° SSE
ATLAS 2AS CENTAUR R/B 4.3 20:04:16 10° NNW 20:10:51 26° NNE 20:15:31 15° ENE
Cosmos 1943 Rocket 3.8 20:08:08 10° NW 20:13:10 35° WSW 20:18:12 10° S
Cosmos 1356 Rocket 3.5 20:13:02 10° N 20:17:21 84° W 20:21:40 10° S
Cosmos 841 Rocket 3.6 20:12:37 10° SSW 20:17:44 75° WNW 20:22:54 10° NNE
SJ-6B 3.1 20:14:10 10° S 20:18:10 71° WSW 20:22:07 10° NNW
NOSS 3-1 (A) 4.1 20:13:18 10° NW 20:20:57 83° NE 20:28:17 15° SE
Cosmos 1953 3.9 20:22:47 19° NE 20:22:47 19° NE 20:24:29 10° NE
Cosmos 2327 Rocket 4.3 20:15:42 10° S 20:21:48 78° E 20:27:54 10° N
ALOS 4.1 20:20:28 10° SSW 20:24:37 32° W 20:28:48 10° NNW
NOSS 3-1 (C) 4.3 20:22:29 10° NW 20:30:07 71° WSW 20:38:31 10° SSE
H-2A R/B 4.3 20:33:38 10° SSW 20:37:03 34° W 20:40:30 10° NNW
Cosmos 540 Rocket 3.3 20:33:19 10° SSW 20:38:25 84° ESE 20:43:34 10° NNE
MOS 1-B Rocket 3.9 20:46:10 16° SSE 20:51:22 87° ENE 20:57:04 10° NNW
COSMOS 2406 3.6 20:51:13 10° SW 20:56:51 64° WNW 21:02:35 10° NNE
BREEZE M DEB (TANK) 3.5 20:54:58 10° WNW 21:00:09 41° SW 21:00:22 40° SW
Cosmos 1758 3.4 21:04:38 72° NNW 21:04:38 72° NNW 21:08:17 10° N
Spot 2 Rocket 3.8 21:01:55 25° S 21:04:52 65° WSW 21:09:54 10° NNW
Cosmos 2154 Rocket 4.0 20:59:13 10° S 21:05:25 81° W 21:11:44 10° N
Meteor 1-21 Rocket 4.1 21:01:04 10° N 21:06:50 76° E 21:08:07 54° SSE
YAOGAN 6 4.2 21:09:19 27° N 21:09:19 27° N 21:11:05 10° N
Resurs 1-3 4.4 21:06:53 26° SSW 21:09:05 48° W 21:13:21 10° NNW
Cosmos 2369 4.0 21:06:30 10° NNW 21:11:53 49° ENE 21:11:53 49° ENE
Cosmos 1939 Rocket 3.4 21:16:00 53° NW 21:16:00 53° NW 21:19:08 10° NNW
Cosmos 1674 3.8 21:11:51 10° NNW 21:14:20 39° NNW 21:14:20 39° NNW
Cosmos 2341 Rocket 3.8 21:10:05 12° S 21:15:57 87° E 21:22:13 10° N
Cosmos 1076 Rocket 4.5 21:16:11 10° N 21:19:01 39° N 21:19:01 39° N
ERS-1 Rocket 4.0 21:31:51 35° NNE 21:31:51 35° NNE 21:34:58 10° N
Resurs 01 Rocket 3.5 21:28:06 17° SW 21:30:34 27° W 21:34:20 10° NW
GEOS 3 Rocket 4.1 21:34:03 53° SW 21:34:03 53° SW 21:38:03 10° SW
FALCON 9 R/B 3.2 21:31:53 10° WSW 21:34:47 36° SSW 21:34:47 36° SSW
Envisat 4.4 21:34:58 23° SW 21:37:18 35° W 21:41:58 10° NNW
Gblst 52 Del rocket 4.5 21:33:59 10° WNW 21:41:22 79° SW 21:41:39 77° S
Cosmos 2218 Rocket 4.3 21:45:54 54° NNE 21:45:54 54° NNE 21:50:40 10° N
Cosmos 2285 Rocket 4.0 21:46:04 73° NNE 21:46:04 73° NNE 21:51:51 10° NNE
H-2A R/B 3.8 21:49:42 21° NNE 21:49:42 21° NNE 21:51:34 10° N
Cosmos 2278 4.0 21:41:24 10° NNW 21:46:09 63° NNW 21:46:09 63° NNW
Meteor 2-21 4.5 21:49:26 74° WSW 21:49:38 75° W 21:55:48 10° N
Cosmos 2322 Rocket 4.4 21:57:40 10° N 21:59:11 14° NNE 21:59:11 14° NNE
ATLAS 2AS CENTAUR R/B 2.9 21:55:08 10° NW 22:02:57 78° NNE 22:02:57 78° NNE
SL-8 Rocket 4.5 22:11:19 55° WNW 22:11:19 55° WNW 22:17:07 10° N
Cosmos 1697 Rocket 3.8 22:06:20 10° NNW 22:09:50 39° NNW 22:09:50 39° NNW
Cosmos 1980 Rocket 3.7 22:07:31 10° NNW 22:10:25 29° N 22:10:25 29° N
BREEZE-M DEB (TANK) 4.3 22:13:17 10° WNW 22:24:49 50° NNW 22:24:49 50° NNW
USA 267 4.5 22:29:38 31° NNE 22:29:38 31° NNE 22:35:12 10° NW
SL-16 R/B 4.4 22:33:29 10° N 22:35:11 18° N 22:35:11 18° N
